Regional Weather Roundup
Issued by NWS

Home | Current Version | Previous Version | Graphics & Text | Print | Product List | Glossary On
Versions: 1 2 3 4 5 6 7 8 9 10 11 12 13 14 15 16 17 18 19 20 21 22 23 24 25 26 27 28 29 30 31 32 33 34 35 36 37 38 39 40 41 42 43 44 45 46 47 48 49 50
000
ASUS43 KLOT 281208
RWRIL

ILLINOIS REGIONAL WEATHER ROUNDUP
NATIONAL WEATHER SERVICE CHICAGO/ROMEOVILLE IL
700 AM CDT TUE APR 28 2015

NOTE: "FAIR" INDICATES FEW OR NO CLOUDS BELOW 12,000 FEET WITH NO
SIGNIFICANT WEATHER AND/OR OBSTRUCTIONS TO VISIBILITY.

* THESE STATIONS ARE NOT UNDER NWS QUALITY CONTROL. THEY ALSO MAY NOT
  REPORT WEATHER SUCH AS PRECIPITATION OR FOG.

ILZ001-002-007-009-015-016-024-281300-
NORTHWEST ILLINOIS

CITY           SKY/WX    TMP DP  RH WIND       PRES   REMARKS
MOLINE         CLEAR     43  36  76 CALM      30.14S
6HR MIN TEMP:  36; 6HR MAX TEMP:  43;

STERLING*      SUNNY     37  34  87 CALM      30.16S
SAVANNA*       CLEAR     40  36  85 E5        30.16R
$$

ILZ003-004-008-010-011-017-018-281300-
NORTH CENTRAL ILLINOIS

CITY           SKY/WX    TMP DP  RH WIND       PRES   REMARKS
ROCKFORD       MOSUNNY   37  34  89 CALM      30.19R
6HR MIN TEMP:  35; 6HR MAX TEMP:  43;

FREEPORT*      SUNNY     33  32  94 NE3       30.19R
ROCHELLE*      SUNNY     34  32  94 CALM      30.17S
DE KALB*       SUNNY     37  32  85 CALM      30.17S
PERU*          SUNNY     38  33  83 CALM      30.17S
$$

ILZ005-006-012>014-019>023-281300-
NORTHEAST ILLINOIS

CITY           SKY/WX    TMP DP  RH WIND       PRES   REMARKS
CHICAGO-OHARE  MOSUNNY   39  34  82 CALM      30.16R
6HR MIN TEMP:  35; 6HR MAX TEMP:  41;

CHICAGO-MIDWAY MOSUNNY   43  37  79 NW3       30.17R
6HR MIN TEMP:  38; 6HR MAX TEMP:  44;

AURORA         SUNNY     34  31  88 CALM      30.17S
6HR MIN TEMP:  30; 6HR MAX TEMP:  38;

LANSING*       SUNNY     35  32  90 CALM      30.17S
JOLIET*        SUNNY     37  35  93 CALM      30.17S
WAUKEGAN       SUNNY     38  33  82 NW3       30.16R
6HR MIN TEMP:  31; 6HR MAX TEMP:  39;

DUPAGE AIRPORT SUNNY     37  33  85 NE3       30.16R
6HR MIN TEMP:  34; 6HR MAX TEMP:  40;

KANKAKEE*      SUNNY     37  35  92 CALM      30.18R FOG
WHEELING       SUNNY     37  33  85 CALM      30.18R
6HR MIN TEMP:  34; 6HR MAX TEMP:  39;

MORRIS*        SUNNY     36  33  90 CALM      30.14R
ROMEOVILLE*    SUNNY     39  35  85 CALM      30.17R
NORTHERLY ISL    N/A     43  36  76 N7          N/A
$$

LMZ740>746-281300-
SOUTHERN LAKE MICHIGAN

STATION/POSITION SKY/WX   TEMP    WIND        PRES    VSBY  WAVE
                          AIR SEA DIR/SP/G                  HT/PER
                          (F)     (DEG/KT/KT) (MB)    (MI)  (FT/S)
HARRISON CRIB              41     340/  6/  6   N/A
BURNHAM HARBOR             43     360/  6/  7   N/A
CALUMET HARBOR             40      CALM  /  1   N/A
BURNS HARBOR               42     320/  3/  4 1021.7R
MICHIGAN CITY              40     260/  5/  6   N/A
MICHIGAN CITY 6N           41 46  270/  6/  6   N/A           1/ 4
$$

ILZ025>027-034>036-040-047-049-050-058-095>099-281300-
WEST-CENTRAL ILLINOIS

CITY           SKY/WX    TMP DP  RH WIND       PRES   REMARKS
QUINCY         CLEAR     44  36  73 SE3       30.14R
GALESBURG*     CLEAR     42  36  80 S6        30.15S
MACOMB*        CLEAR     38  37  94 CALM      30.17S
JACKSONVILLE*  CLEAR     41  38  87 CALM      30.15S
PITTSFIELD*    CLEAR     40  38  90 CALM      30.16S
$$

ILZ028>032-037-038-041>044-048-051>054-059>061-281300-
CENTRAL ILLINOIS

CITY           SKY/WX    TMP DP  RH WIND       PRES   REMARKS
PONTIAC        SUNNY     37  34  90 CALM      30.17F
BLOOMINGTON    SUNNY     38  35  89 E6        30.17S WCI  33
DECATUR        SUNNY     38  33  82 NE5       30.16R WCI  34
PEORIA         FAIR      41  36  82 CALM      30.16S
6HR MIN TEMP:  39; 6HR MAX TEMP:  47;

LACON*         SUNNY     37  35  90 CALM      30.16S
LINCOLN*       SUNNY     39  35  85 N3        30.16F
SPRINGFIELD    CLEAR     41  36  82 E3        30.16R
6HR MIN TEMP:  36; 6HR MAX TEMP:  46;

TAYLORVILLE    CLEAR     37  34  87 N6        30.16R WCI  33
$$

ILZ033-039-045-046-055>057-062-063-281300-
EAST-CENTRAL ILLINOIS

CITY           SKY/WX    TMP DP  RH WIND       PRES   REMARKS
CHAMPAIGN      SUNNY     41  35  79 NE8       30.16R
DANVILLE*      SUNNY     37  35  92 NE5       30.14S WCI  33
RANTOUL*       SUNNY     42  36  80 NE6       30.16S
MATTOON        SUNNY     37  33  85 NE6       30.14R WCI  32
PARIS*         SUNNY     40  37  88 N6        30.17R
$$

ILZ079-100>102-281300-
SOUTHWEST ILLINOIS

CITY           SKY/WX    TMP DP  RH WIND       PRES   REMARKS
ALTON          PTCLDY    43  37  81 N7        30.14S
BELLEVILLE     CLEAR     44  39  85 N7        30.12R
CAHOKIA*       CLEAR     45  38  76 NE7       30.13R
SPARTA*        CLEAR     41  38  89 N7        30.12R
$$

ILZ064>066-069>071-074>076-080>082-084>086-088>090-092>094-281300-
SOUTH-CENTRAL ILLINOIS

CITY           SKY/WX    TMP DP  RH WIND       PRES   REMARKS
CARBONDALE     CLEAR     45  37  73 N5        30.10R
6HR MIN TEMP:  41; 6HR MAX TEMP:  49;

CAIRO*         PTCLDY    46  39  75 N9        30.07S
EFFINGHAM*     SUNNY     42  34  73 N3        30.15S
MARION         CLEAR     45  39  81 N12       30.10R
MT. VERNON     SUNNY     43  34  70 N5        30.13R
CENTRALIA*     CLEAR     48  37  65 NE5       30.13R
SALEM*         SUNNY     44  37  77 NE7       30.13R
METROPOLIS*    CLEAR     45  41  85 N3        30.07R
$$

ILZ067-068-072-073-078-083-087-091-281300-
SOUTHEAST ILLINOIS

CITY           SKY/WX    TMP DP  RH WIND       PRES   REMARKS
LAWRENCEVILLE  SUNNY     44  38  79 N10       30.13R
FLORA*         SUNNY     40  37  87 N6        30.13R
FAIRFIELD*     SUNNY     42  38  83 N8        30.11R
HARRISBURG*    SUNNY     44  39  81 N7        30.10S
ROBINSON*      SUNNY     41  39  92 N6        30.14S
CARMI*         SUNNY     43  36  76 N5        30.10R
$$

ABBREVIATIONS USED IN REMARKS
   TC - TEMPERATURE IN CELSIUS
  WCI - WIND CHILL INDEX
   HX - HEAT INDEX
  VSB - VISIBILITY
$$




USA.gov is the U.S. government's official web portal to all federal, state and local government web resources and services.